Погода Алтай

Погода Алтай : погода сейчас, прогноз погоды и архив. Всё, что Вы хотите узнать о погоде Алтай!

Поиск расширенной информации на нашем сайте:

Другие новости

Новости СМИ2

Главная страница сайта

Новости сайта

02.10.2013

Напоминаем, что на нашем новом сайте вы можете получить высокодетализированные прогнозы погоды по пунктам России, СНГ и мира (включающие важные для авиации метеовеличины, такие как направление и скорость ветра, видимость, явления погоды, количество и форма облачности, нижняя и верхняя граница облачности), а также ознакомиться с разнообразными материалами по авиационной метеорологии и подборкой полезных ссылок на эту тему.

Сайт Метеоцентр.Азия посвящён разработке технологий оптимизации авиаметеорологического обслуживания, включая проектирование и перспективное создание нескольких автоматизированных авиаметеорологических систем:
- система выпуска высокодетальных прогностических карт явлений погоды для нижнего воздушного пространства по России и ближнему зарубежью;
- система верификации прогнозов TAF (выпускаемых синоптиками официальных АМСГ РФ и ближнего зарубежья) и AUTOTAF (выпускаемых сайтом Метеоцентр.Азия) - выявление ошибок, онлайн-сопоставление с фактической погодой METAR, автоматическое внесение коррективов в прогнозы при резком отклонении фактической погоды от прогноза, подсчёт оправдываемости прогнозов по элементам и в целом;
- система обработки, анализа и отображения авиаметеорологической информации для применения провайдерами метеорологической информации.

Рекомендуем: купить офис в бизнес центре хамовническая слобода

Погода Алтай - сегодня

Время (UTC), дата Ветер
(°,м/с) 
Видим.   Явления Облачность Т
(°С)
Тd
(°С)
f(%) Тe
(°С)
Pmin
(гПа)
dP
(гПа)
Po
(мм)
O2
(г/м3)
Тmin Tmax R s Состояние
почвы
18 23.04.17 160 (Ю) 20000 м    10/0 средняя 
[Ac und]
+5.9 -3.9 49 +5  1009.2  0.1  754  298           
21 23.04.17 140 (ЮВ) 20000 м    8/0 средняя 
[Ac As]
+2.7 -3.2 65 +3  1008.9  -0.3  754  301           
00 24.04.17 150 (ЮВ) 20000 м    10/0 средняя 
[Ac und]
+2.9 -3.1 65 +4  1008  -0.9  753  301           
03 24.04.17 190 (Ю) 20000 м    10/10 600 м 
[Sc]
+4.4 -2.9 59 +4  1009.1  1.1  754  299  +2.5         
06 24.04.17 240 (ЮЗ) н/о    н/о 
+6.4 -1.7 56 +6  1010.5  1.5  755  297           
09 24.04.17 270 (З) 20000 м    8/8 600 м 
[Cu med, cong]
+10.7 -0.5 46 +10  1012.3  1.8  756  293           
12 24.04.17 280 (З) н/о    н/о 
+11.7 -3.5 34 +11  1013.7  1.4  757  293           
15 24.04.17 160 (Ю) 20000 м    9/1 600 м верхняя 
[Cu hum|Ci sp]
+8.4 -2 48 +9  1014.9  1.1  758  297    +12       
18 24.04.17 180 (Ю) 20000 м    ясно 
+7 -1.9 53 +7  1016  1.1  759  298           
21 24.04.17 210 (ЮЗ) 20000 м    ясно 
+6.7 -1.3 57 +7  1016.1  0.1  759  299           
00 25.04.17 160 (Ю) 10 км  слаб. ливневой дождь  10/10 600 м кучево-дожд. 
[Cb calv]
+5.3 +2.5 82 +5  1015.2  -1  758  299           
03 25.04.17 120 (ЮВ) 10 км  слаб. ливневой дождь  10/10 600 м кучево-дожд. 
[Cb calv]
+5.3 +3.3 87 +4  1011.4  -3.8  756  298  +4.7       
06 25.04.17 150 (ЮВ) н/о    н/о 
+7 +3.6 79 +5  1007.9  -3.5  753  295           
09 25.04.17 150 (ЮВ) н/о    н/о 
+7 +3.6 79 +5  1007.9  -3.5  753  295           
12 25.04.17 150 (ЮВ) н/о    н/о 
+7 +3.6 79 +5  1007.9  -3.5  753  295           
15 25.04.17 300 (СЗ) 2{13}  20000 м    3/3 600 м 
[Cu med, cong]
+13.3 +7.9 70 +14  1008  3.1  753  288    +16.5  0.6     
18 25.04.17 150 (ЮВ) н/о    н/о 
+7 +3.6 79 +5  1007.9  -3.5  753  295           
21 25.04.17 270 (З) 20000 м    ясно 
+5.1 +1.1 75 +5  1013.6  2.6  757  299           
00 26.04.17 210 (ЮЗ) 20000 м    ясно 
+2.8 +0.3 84 +2  1015.1  1.5  758  302           
03 26.04.17 240 (ЮЗ) 20000 м    ясно 
+6.9 +0.5 64 +6  1016.1  759  298  +2.7         
06 26.04.17 250 (З) н/о    н/о 
+10.3 +0.7 51 +10  1016.2  0.1  759  295           
09 26.04.17 240 (ЮЗ) 20000 м    ясно 
+12.5 -0.1 42 +13  1016.1  -0.1  759  292           
12 26.04.17 310 (СЗ) н/о    н/о 
+13.6 +0.2 40 +14  1015.9  -0.2  759  291           
15 26.04.17 010 (С) 20000 м    8/0 средняя, верхняя 
[Ac lent|Ci]
+6.9 +1.1 67 +6  1016.8  0.8  760  298    +13.6       
18 26.04.17 340 (С) 20000 м    6/0 средняя 
[Ac lent]
+1.5 -1.1 83 1017.6  0.7  760  305           
Время (UTC), дата Ветер
(°,м/с) 
Видим.   Явления Облачность Т
(°С)
Тd
(°С)
f(%) Тe
(°С)
Pmin
(гПа)
dP
(гПа)
Po
(мм)
O2
(г/м3)
Тmin Tmax R s Состояние
почвы

Для получения пояснительной информации подведите курсор к названию столбца.

ПОГОДА Алтай - архив

Всё, что Вы хотите узнать о погоде Алтай - удобно и подробно!

Выберите нужную дату (начиная с 1 января 2015* года) и нажмите кнопку "Найти".
Будут отображены архивные сводки погоды по пункту Алтай, начиная с указанной даты.


Отображать данные в формате CSV (для использования в таблицах Excel)


Внимание! Наш архив погоды предназначен исключительно для личного некоммерческого использования в познавательных целях. Если Вам необходимы официальные справки о состоянии погоды (для производственных, юридических, коммерческих и т.п. целей), обращайтесь в органы Росгидромета.

*Примечание: данная дата относится к архиву по метеостанциям СССР (Россия, СНГ, Балтия).
Архив по метеостанциям Зарубежной Европы и Азии (кроме Китая) хранится 10 дней, по другим регионам земного шара (Китай, Африка, Америка, Австралия, Океания) - 1 день.

Алтай - район местоположения метеостанции


Название, широта, долгота, высота метеостанции:
Алтай 60.3°ш. 68.9°д. 30 м над ур. моря [Российская Федерация]

Дополнительная информация

В oтличие oт бoльшинства пoгoдных сайтoв мы публикуем пoдрoбную метеoинфoрмацию в детальнoм прoфессиoнальнoм фoрмате.

Характеристики температуры и влажнoсти вoздуха измеряются на высoте 2 м в тени вдали oт зданий и деревьев.
Скoрoсть ветра измеряется на высoте 10 м (на урoвне рoста челoвека скoрoсть ветра ниже в 1.5-2 раза). Если метеoстанция нахoдится в гoрoде или в лесу, тo скoрoсть ветра занижена на 2-4 м/с пo сравнению с oткрытым местoм. Скoрoсть ветра над акватoриями крупных рек и oзёр, а также на вершинах хoлмoв на 2-5 м/с выше, чем в oбычных услoвиях.
Атмoсфернoе давление в разных тoчках местнoсти мoжет значительнo oтличаться oт давления на метеoстанции, в зависимoсти oт услoвий рельефа (при пoдъёме на 10 м давление пoнижается примернo на 1 мм рт.ст.).